PRAKF SBRF-SBBR

Flight info

Callsign PRAKF
Flight time N/A
Altitude 43000
Route KUKES UZ59 VADOP
Aircraft C700/M-SBDGHM1RWXY/LB2

Departure

Time 2026-05-01 12:38
Airport Recife/Guararapes - Gilberto Freyre International Airport (SBRF)

Arrival

Time N/A
Airport Presidente Juscelino Kubitschek International Airport (SBBR)
Time Latitude Longitude Altitude Speed Heading
2026-05-01 12:30 -8.12471 -34.92117 35 ft 0 kts 310°
2026-05-01 12:34 -8.12466 -34.92137 35 ft 6 kts 260°
2026-05-01 12:35 -8.12500 -34.92198 36 ft 13 kts 275°
2026-05-01 12:35 -8.12416 -34.92243 35 ft 18 kts 341°
2026-05-01 12:35 -8.12280 -34.92290 35 ft 24 kts 340°
2026-05-01 12:35 -8.12104 -34.92352 35 ft 30 kts 342°
2026-05-01 12:36 -8.11901 -34.92417 34 ft 30 kts 342°
2026-05-01 12:36 -8.11705 -34.92476 34 ft 29 kts 342°
2026-05-01 12:36 -8.11609 -34.92514 35 ft 0 kts 326°
2026-05-01 12:36 -8.11607 -34.92515 35 ft 1 kts 326°
2026-05-01 12:37 -8.11580 -34.92534 35 ft 9 kts 324°
2026-05-01 12:37 -8.11495 -34.92605 35 ft 22 kts 320°
2026-05-01 12:37 -8.11461 -34.92698 35 ft 12 kts 195°
2026-05-01 12:37 -8.11652 -34.92644 34 ft 64 kts 162°
2026-05-01 12:38 -8.12311 -34.92437 38 ft 130 kts 165°
2026-05-01 12:38 -8.13313 -34.92120 504 ft 164 kts 161°
2026-05-01 12:38 -8.14462 -34.91708 1320 ft 187 kts 161°
2026-05-01 12:38 -8.15783 -34.91482 2442 ft 206 kts 187°
2026-05-01 12:39 -8.17062 -34.92254 3678 ft 231 kts 230°
2026-05-01 12:39 -8.17812 -34.93749 5043 ft 245 kts 246°
2026-05-01 12:39 -8.18446 -34.95448 5996 ft 281 kts 247°
2026-05-01 12:39 -8.19185 -34.97337 6030 ft 289 kts 246°
2026-05-01 12:40 -8.19946 -34.99185 6028 ft 281 kts 244°
2026-05-01 12:40 -8.20679 -35.00962 6028 ft 278 kts 245°
2026-05-01 12:40 -8.21415 -35.02776 6027 ft 279 kts 245°
2026-05-01 12:40 -8.22164 -35.04620 6683 ft 285 kts 245°
2026-05-01 12:41 -8.22921 -35.06482 8196 ft 288 kts 246°
2026-05-01 12:41 -8.23687 -35.08360 9714 ft 291 kts 246°
2026-05-01 12:41 -8.24490 -35.10329 10658 ft 317 kts 246°
2026-05-01 12:41 -8.25366 -35.12477 11450 ft 345 kts 246°
2026-05-01 12:42 -8.26314 -35.14810 12259 ft 374 kts 246°
2026-05-01 12:42 -8.27273 -35.17322 13390 ft 387 kts 250°
2026-05-01 12:42 -8.28175 -35.19899 14686 ft 394 kts 249°
2026-05-01 12:42 -8.29125 -35.22522 15827 ft 402 kts 249°
2026-05-01 12:43 -8.30098 -35.25208 16968 ft 411 kts 249°
2026-05-01 12:43 -8.31061 -35.27918 18093 ft 419 kts 249°
2026-05-01 12:43 -8.32051 -35.30711 19106 ft 426 kts 249°
2026-05-01 12:43 -8.33063 -35.33544 20130 ft 431 kts 249°
2026-05-01 12:44 -8.34087 -35.36401 21139 ft 437 kts 249°
2026-05-01 12:44 -8.35126 -35.39312 22153 ft 442 kts 249°
2026-05-01 12:44 -8.37234 -35.45230 24000 ft 453 kts 249°
2026-05-01 12:45 -8.39389 -35.51271 25614 ft 461 kts 249°
2026-05-01 12:45 -8.40479 -35.54334 26419 ft 466 kts 249°
2026-05-01 12:45 -8.41582 -35.57430 27187 ft 470 kts 250°
2026-05-01 12:46 -8.42692 -35.60546 27954 ft 475 kts 250°
2026-05-01 12:46 -8.43817 -35.63706 28673 ft 480 kts 250°
2026-05-01 12:46 -8.44953 -35.66898 29396 ft 485 kts 250°
2026-05-01 12:46 -8.46099 -35.70119 30103 ft 489 kts 250°
2026-05-01 12:47 -8.47255 -35.73368 30693 ft 494 kts 250°
2026-05-01 12:47 -8.48421 -35.76648 31409 ft 494 kts 251°
2026-05-01 12:47 -8.49579 -35.79904 32360 ft 489 kts 251°
2026-05-01 12:47 -8.50707 -35.83077 33200 ft 486 kts 252°
2026-05-01 12:48 -8.51845 -35.86281 33963 ft 484 kts 252°
2026-05-01 12:48 -8.52980 -35.89478 34625 ft 481 kts 252°
2026-05-01 12:48 -8.54107 -35.92649 35374 ft 477 kts 252°
2026-05-01 12:48 -8.55220 -35.95783 36187 ft 472 kts 252°
2026-05-01 12:49 -8.56319 -35.98881 37002 ft 466 kts 252°
2026-05-01 12:49 -8.57407 -36.01950 37809 ft 461 kts 251°
2026-05-01 12:49 -8.58483 -36.04984 38557 ft 456 kts 251°
2026-05-01 12:49 -8.59547 -36.07981 39126 ft 452 kts 251°
2026-05-01 12:50 -8.60607 -36.10974 39578 ft 449 kts 251°
2026-05-01 12:50 -8.61645 -36.13902 39981 ft 448 kts 251°
2026-05-01 12:50 -8.62693 -36.16861 40356 ft 446 kts 251°
2026-05-01 12:50 -8.63738 -36.19808 40691 ft 445 kts 251°
2026-05-01 12:51 -8.64777 -36.22743 41019 ft 443 kts 251°
2026-05-01 12:51 -8.65814 -36.25673 41314 ft 442 kts 251°
2026-05-01 12:51 -8.67880 -36.31511 41856 ft 440 kts 251°
2026-05-01 12:52 -8.68910 -36.34421 42124 ft 439 kts 251°
2026-05-01 12:52 -8.70960 -36.40221 42562 ft 437 kts 250°
2026-05-01 12:52 -8.71986 -36.43125 42774 ft 436 kts 250°
2026-05-01 12:53 -8.74024 -36.48894 43074 ft 437 kts 250°
2026-05-01 12:53 -8.75052 -36.51804 43073 ft 440 kts 250°
2026-05-01 12:54 -8.77125 -36.57676 43084 ft 446 kts 250°
2026-05-01 12:54 -8.80285 -36.66633 43082 ft 455 kts 250°
2026-05-01 12:55 -8.83500 -36.75753 43083 ft 460 kts 250°
2026-05-01 12:56 -8.85636 -36.81819 43079 ft 456 kts 250°
2026-05-01 12:56 -8.87743 -36.87804 43074 ft 454 kts 250°
2026-05-01 12:57 -8.89868 -36.93844 43076 ft 457 kts 250°
2026-05-01 12:57 -8.93067 -37.02943 43077 ft 454 kts 250°
2026-05-01 12:58 -8.95162 -37.08907 43061 ft 447 kts 250°
2026-05-01 12:59 -8.98310 -37.17872 43064 ft 455 kts 250°
2026-05-01 12:59 -9.01703 -37.26810 43073 ft 451 kts 241°
2026-05-01 13:00 -9.06807 -37.34757 43071 ft 450 kts 237°
2026-05-01 13:01 -9.11998 -37.42694 43074 ft 454 kts 236°
2026-05-01 13:02 -9.17250 -37.50738 43068 ft 452 kts 236°
2026-05-01 13:07 -9.55430 -38.09318 43065 ft 456 kts 236°
2026-05-01 13:08 -9.58920 -38.14687 43065 ft 456 kts 236°
2026-05-01 13:08 -9.62406 -38.20051 43068 ft 455 kts 236°
2026-05-01 13:09 -9.65874 -38.25391 43066 ft 452 kts 236°
2026-05-01 13:09 -9.69327 -38.30711 43064 ft 452 kts 236°
2026-05-01 13:10 -9.72780 -38.36031 43064 ft 453 kts 236°
2026-05-01 13:10 -9.76245 -38.41375 43065 ft 453 kts 236°
2026-05-01 13:11 -9.79702 -38.46722 43070 ft 452 kts 236°
2026-05-01 13:11 -9.83144 -38.52049 43064 ft 451 kts 236°
2026-05-01 13:12 -9.85998 -38.56488 43067 ft 452 kts 236°
2026-05-01 13:12 -9.90005 -38.62707 43066 ft 453 kts 236°
2026-05-01 13:13 -9.92898 -38.67204 43073 ft 454 kts 236°
2026-05-01 13:13 -9.96326 -38.72532 43069 ft 454 kts 236°
2026-05-01 13:14 -9.99781 -38.77906 43068 ft 454 kts 236°
2026-05-01 13:14 -10.03234 -38.83278 43067 ft 455 kts 236°